Tracking 19574 objects as of 16-Feb-2019
HD Live streaming from Space Station
objects crossing your sky now

COSMOS 1153

Track COSMOS 1153 now!
10-day predictions
COSMOS 1153 is classified as:


NORAD ID: 11680
Int'l Code: 1980-007A
Perigee: 967.1 km
Apogee: 1,020.2 km
Inclination: 82.9 °
Period: 104.8 minutes
Semi major axis: 7364 km
RCS: 3.444 m2 (large)
Launch date: January 25, 1980
Source: Commonwealth of Independent States (former USSR) (CIS)
Launch site: PLESETSK MISSILE AND SPACE COMPLEX (PKMTR)
aabbcc
Your satellite tracking list
Your tracking list is empty




NASA's NSSDC Master Catalog

Two Line Element Set (TLE):
1 11680U 80007A   19046.88355240  .00000010  00000-0 -49519-5 0  9991
2 11680  82.9354 353.0438 0036042 228.7882 184.2320 13.73633704957724
Source of the keplerian elements: AFSPC